www.pogodaiklimat.ru

Погода и климат >> Архив погоды >> Индия >> Карнатака >> Гулбарга


ПОГОДА в Гулбарге

  • Прогноз погоды в Гулбарге
  • Монитор погоды в Гулбарге

АРХИВ ПОГОДЫ в Гулбарге

Время (UTC), дата Ветер
(напр.,м/с)
 
Видим.   Явления Облачность Т
(С)
Тd
(С)
f
(%)
Тe
(С)
Тes
(С)
Комфортность P
(гПа)
Po
(гПа)
Тmin
(С)
Tmax
(С)
R
(мм)
R24
(мм)
S
(см)
09 12.07 З 2 10 км 9/5 600 м
[Sc diur, vesp Ac As]
+32.6 +21.8 53 +41 +45 опасность
перегрева
1004.8 955.2
12 12.07 З 2 10 км 9/5 300 м
[Cb calv Ac As Cs]
+31.2 +21.4 56 +39 +40 очень
душно
1003.7 954.1 +33.8
15 12.07 штиль 0 4000 м мгла {дождь} 10/5 300 м
[Sc As op]
+25.2 +24.1 94 +35 +35 очень
душно
1006.9 956.2 6
18 12.07 З 1 4000 м 6/1 300 м
[Sc As op]
+25.2 +22.3 84 +33 +33 очень
душно
1009.1 958.2 6
21 12.07 З 1 4000 м 5/0 2000 м
[Ac As]
+25.0 +22.1 84 +32 +32 очень
душно
1007.3 956.6 6
00 13.07 З 2 4000 м мгла 4/0
[Ci]
+24.0 +21.4 85 +30 +30 очень
душно
1007.6 956.5 6
03 13.07 З 2 4000 м мгла 3/1 300 м
[St Ci sp]
+26.2 +22.8 82 +35 +42 очень
душно
1009.1 958.4 +23.7 +33.8 6
06 13.07 З 2 10 км 9/5 300 м
[Sc diur, vesp Ac lent Ci sp]
+32.0 +21.7 55 +41 +47 опасность
перегрева
1007.5 957.7
09 13.07 З 2 10 км 8/5 600 м
[Sc diur, vesp Ci sp]
+35.0 +20.6 43 +42 +49 опасность
перегрева
1004.4 955.3
12 13.07 З 4 10 км 9/4 300 м
[Cb calv Ac As Cs]
+34.0 +20.8 46 +41 +41 опасность
перегрева
1002.9 953.7 +35.6
15 13.07 З 3 10 км 9/4 300 м
[St As op]
+30.8 +21.0 56 +38 +38 очень
душно
1006.0 956.1
18 13.07 З 2 4000 м 9/0 2000 м
[Ac As]
+28.4 +20.8 63 +35 +35 очень
душно
1007.5 957.3
21 13.07 З 2 4000 м 10/0 2000 м
[Ac As Cs]
+26.4 +21.1 73 +33 +33 очень
душно
1006.6 956.0
00 14.07 З 2 4000 м мгла 8/1 300 м
[Sc Ac As Ci sp]
+25.4 +21.3 78 +32 +32 очень
душно
1006.5 955.8
03 14.07 З 2 4000 м мгла 9/1 300 м
[St Ac lent Cs]
+27.4 +21.9 72 +35 +39 очень
душно
1008.2 957.7 +25.1 +35.6
06 14.07 З 3 10 км 6/6 600 м
[Sc diur, vesp]
+32.0 +21.0 52 +39 +47 очень
душно
1006.6 956.9
09 14.07 З 4 10 км 8/5 600 м
[Sc diur, vesp Ac lent]
+35.4 +20.4 42 +42 +45 опасность
перегрева
1002.9 954.0
12 14.07 З 3 10 км 5/5 600 м
[Cb calv]
+33.0 +21.6 51 +41 +42 опасность
перегрева
1001.7 952.5 +36.5
15 14.07 З 2 4000 м мгла 9/4 300 м
[Sc Ac trans]
+30.2 +21.9 61 +39 +39 очень
душно
1004.3 954.5
18 14.07 З 3 4000 м мгла {дождь} 10/10 300 м
[St]
+25.8 +22.9 84 +34 +34 очень
душно
1006.5 955.8 0.9
21 14.07 З 2 4000 м мгла 1/0
[Cs]
+25.8 +23.2 86 +35 +35 очень
душно
1005.0 954.4 0.9
00 15.07 З 2 4000 м мгла 4/4 600 м
[Sc]
+24.4 +21.8 85 +31 +31 очень
душно
1004.8 954.0 0.9
03 15.07 З 2 4000 м мгла 4/3 300 м
[St Ci sp]
+26.6 +23.2 82 +36 +41 очень
душно
1006.3 955.7 +24.0 +36.5 0.9
06 15.07 З 4 10 км 6/6 600 м
[Sc diur, vesp]
+31.6 +21.6 55 +40 +45 очень
душно
1005.1 955.5
09 15.07 З 4 10 км 9/6 300 м
[Cb calv Ac As]
+34.0 +21.6 48 +42 +44 опасность
перегрева
1001.5 952.5
12 15.07 З 4 10 км 9/6 300 м
[Cb calv Ac As]
+34.0 +21.6 48 +42 +42 опасность
перегрева
1001.5 952.5 +35.1
15 15.07 З 2 4000 м 8/4 300 м
[Sc Ac trans]
+31.2 +19.4 50 +37 +37 очень
душно
1003.4 953.8
18 15.07 З 3 4000 м 6/0
[Cs]
+28.4 +20.8 63 +35 +35 очень
душно
1005.6 955.4
21 15.07 З 2 4000 м мгла 3/0
[Cs]
+25.8 +21.1 75 +32 +32 очень
душно
1005.0 954.4
00 16.07 З 2 4000 м мгла 4/4 600 м
[Sc]
+24.6 +20.8 79 +31 +31 очень
душно
1005.4 954.6
03 16.07 З 2 4000 м мгла 4/0 2000 м
[Ac lent]
+27.4 +22.2 73 +36 +41 очень
душно
1006.7 956.3 +24.2 +35.1
06 16.07 З 3 10 км 8/8 600 м
[Sc diur, vesp]
+32.6 +21.1 51 +40 +44 очень
душно
1005.6 956.0
09 16.07 З 3 10 км 5/5 300 м
[Cu Sc]
+36.0 +20.5 41 +43 +50 опасность
перегрева
1002.5 953.6
12 16.07 Ю 3 10 км 6/6 300 м
[Cb calv]
+34.8 +19.3 40 +40 +41 очень
душно
1001.0 952.0 +37.6
15 16.07 З 1 4000 м 5/3 300 м
[Sc Ac lent]
+29.8 +21.1 60 +37 +37 очень
душно
1003.7 953.8
18 16.07 З 1 4000 м 5/5 600 м
[Sc]
+27.6 +20.9 67 +35 +35 очень
душно
1006.6 956.2
21 16.07 З 1 4000 м 5/0 2000 м
[Ac lent]
+26.6 +21.7 75 +34 +34 очень
душно
1005.6 955.1
00 17.07 З 2 4000 м мгла 6/5 300 м
[Sc Ac lent]
+25.6 +20.9 75 +32 +32 очень
душно
1005.5 954.9
03 17.07 З 3 4000 м мгла 1/0 2000 м
[Ac trans]
+27.6 +22.1 72 +36 +42 очень
душно
1005.9 955.5 +25.0 +37.6
06 17.07 З 3 10 км 6/5 300 м
[Cu Sc Ac trans]
+34.0 +20.8 46 +41 +49 опасность
перегрева
1004.7 955.3
09 17.07 З 1 10 км 5/5 600 м
[Sc diur, vesp]
+36.4 +19.9 38 +42 +52 опасность
перегрева
1001.0 952.3
12 17.07 З 4 10 км 8/5 600 м
[Cu Sc Ac As]
+36.0 +17.9 34 +39 +40 очень
душно
999.1 950.4 +37.5
15 17.07 В 2 4000 м гроза, ливневой дождь 10/8 300 м
[Cb cap As op]
+27.0 +23.3 80 +36 +36 очень
душно
1005.1 954.6 1
18 17.07 штиль 0 4000 м слаб. дождь 10/6 300 м
[Cb cap As op]
+24.6 +23.5 94 +33 +33 очень
душно
1006.0 955.2 4
21 17.07 З 1 4000 м 9/0 2000 м
[Ac As]
+24.6 +22.9 90 +33 +33 очень
душно
1003.7 953.0 4
00 18.07 З 2 4000 м мгла 10/0 2000 м
[Ac As]
+25.0 +22.4 86 +33 +33 очень
душно
1004.0 953.2 4
03 18.07 З 3 4000 м мгла 8/0 2000 м
[Ac As Ci sp]
+26.6 +22.0 76 +34 +38 очень
душно
1004.3 953.8 +23.8 +37.5 4
06 18.07 СЗ 3 10 км 3/1 300 м
[Sc Ci sp]
+33.2 +21.1 49 +41 +57 опасность
перегрева
1003.0 953.7
09 18.07 СВ 2 10 км 6/6 600 м
[Sc diur, vesp]
+32.2 +22.3 56 +41 +48 опасность
перегрева
1001.0 951.5
12 18.07 ЮЗ 1 10 км 8/3 600 м
[Cb calv Ac As Ci sp]
+33.0 +22.2 53 +42 +43 опасность
перегрева
998.6 949.4 +36.4
15 18.07 Ю 2 4000 м 9/4 300 м
[Sc Ac As]
+31.0 +22.2 60 +40 +40 очень
душно
1000.5 950.9
18 18.07 СЗ 1 4000 м гроза, ливневой дождь 10/6 300 м
[Cb cap Ac As]
+24.8 +23.9 95 +34 +34 очень
душно
1004.1 953.3 17
21 18.07 штиль 0 4000 м мгла {дождь} 10/5 300 м
[Sc Ac As]
+24.0 +22.3 90 +31 +31 очень
душно
1002.3 951.4 19
00 19.07 штиль 0 4000 м мгла {дождь} 10/4 300 м
[Sc Ac As]
+24.4 +23.0 92 +32 +32 очень
душно
1002.7 952.0 19
03 19.07 З 1 4000 м мгла 10/5 600 м
[Sc Ac As]
+25.0 +23.6 92 +34 +35 очень
душно
1003.0 952.3 +24.8 +36.4 19
06 19.07 З 2 10 км 9/4 600 м
[Sc Ac As]
+30.0 +23.2 67 +40 +46 очень
душно
1003.2 952.4

 

Местоположение метеостанции Гулбарга (Карнатака, Индия): широта 17.35 долгота 76.85 высота над уровнем моря 458 м.

В архиве по умолчанию представлена погода в Гулбарге за последнюю неделю. Архивные данные за месяц целиком и за предыдущие месяцы, начиная с января 2011 года, Вы можете получить, выбрав интересующий диапазон дат из раскрывающегося списка и нажав кнопку "Ввод!".


*Определитесь, кто Вы:
робот инопланетянин человек

Внимание! Время в таблицах - всемирное. Для получения местного времени необходимо прибавить поправку, которая равна 5.5 ч.

Смотрите также архив погоды в соседних городах и на ближайших метеорологических станциях:

Погода в Аджере (Махараштра, Индия) (85 км)
Погода в Бидаре (Карнатака, Индия) (96 км)
Погода в Солапуре (Махараштра, Индия) (107 км)
Погода в Османабаде (Махараштра, Индия) (126 км)
Погода в Биджапуре (Карнатака, Индия) (134 км)
Погода в Багалкоте (Карнатака, Индия) (138 км)
Погода в Райчуре (Карнатака, Индия) (139 км)
Погода в Махбубнагаре (Телингана, Индия) (139 км)
Погода в Медаке (Телингана, Индия) (169 км)
Погода в Хайдарабаде (Телингана, Индия) (172 км)

Пояснения к столбцам:

Ветер - указаны скорость ветра в м/с - средняя за 10 мин, порывы в срок и между сроками (в фигурных скобках) и направление, откуда дует ветер: С - северный, СВ - северо-восточный, В - восточный, ЮВ - юго-восточный, Ю - южный, ЮЗ - юго-западный, З - западный, СЗ - северо-западный.
Видимость - горизонтальная дальность видимости в метрах или километрах. При видимости от 1 до 10 км при отсутствии осадков обычно наблюдается дымка, при ухудшении видимости до 1 км и менее - туман. В сухую погоду видимость может ухудшаться дымом, пылью или мглою.
Явления - указаны атмосферные явления, наблюдавшиеся в срок или в последний час перед сроком; фигурными скобками обозначены явления, наблюдавшиеся между сроками (за 1-3 часа до срока); квадратными скобками обозначены град или гололедные отложения с указанием их диаметра в мм.
Облачность - указаны через наклонную черту общая и нижняя облачность в баллах и высота нижней границы облаков в метрах; квадратными скобками обозначены формы облаков: Ci - перистые, Cs - перисто-слоистые, Cc - перисто-кучевые, Ac - высококучевые, As - высокослоистые, Sc - слоисто-кучевые, Ns - слоисто-дождевые, Cu - кучевые, Cb - кучево-дождевые. Подробнее классификацию облаков см. в Атласе облаков (PDF).
T - Температура воздуха - температура, измеренная на высоте 2 м над землей.
Td - Температура точки росы - температура, при понижении до которой содержащийся в воздухе водяной пар достигнет насыщения.
f - Относительная влажность воздуха - влажноcть воздуха, измеренная на высоте 2 м над землей.
Te - Эффективная температура - температура, которую ощущает одетый по сезону человек в тени. Характеристика душности погоды. При расчете учитывается влияние влажности воздуха и скорости ветра на теплоощущения человека.
Tes - Эффективная температура на солнце - температура, которую ощущает человек, с поправкой на солнечный нагрев. Характеристика знойности погоды. Зависит от высоты солнца над горизонтом, облачности и скорости ветра. Ночью, в пасмурную погоду, а также при ветре 12 м/с и более поправка равна нулю.
P - Атмосферное давление - приведенное к уровню моря атмосферное давление.
Po - Атмосферное давление - измеренное на уровне метеостанции атмосферное давление.
Tmin - Минимальная температура - минимум температуры воздуха на высоте 2 м над землей.
Tmax - Максимальная температура - максимум температуры воздуха на высоте 2 м над землей.
R - Количество осадков - Количество выпавших осадков за период времени, мм. При наведении курсора мыши на число - период времени, за который выпало указанное количество осадков.
R24 - Количество осадков - Количество выпавших осадков за 24 часа, мм.
S - Снежный покров - Высота снежного покрова, см. При наведении курсора мыши на число - состояние снежного покрова и степень покрытия местности в баллах.